Custer, SD

12:25 PM MST on February 26, 2017 (GMT -0700)
Custer County

Weather History for KCUT - July, 2013

Change the Weather History Date:

Tuesday, July 30, 2013

  Actual Average Record
Temperature  
Mean Temperature 67 °F 66 °F  
Max Temperature 81 °F 80 °F 99 °F (2006)
Min Temperature 53 °F 52 °F 30 °F (1971)
Degree Days  
Heating Degree Days 0 2  
Month to date heating degree days 39 64  
Since 1 June heating degree days 232 284  
Since 1 July heating degree days 39 64  
Cooling Degree Days 2 3  
Month to date cooling degree days 63 80  
Year to date cooling degree days 74 106  
Since 1 June cooling degree days 72 105  
Growing Degree Days 17 (Base 50)    
Moisture  
Dew Point 51 °F    
Average Humidity 60    
Maximum Humidity 93    
Minimum Humidity 26    
Precipitation  
Precipitation 0.01 in 0.08 in 1.05 in (1984)
Month to date precipitation 3.80 2.37  
Year to date precipitation 11.98 12.70  
Sea Level Pressure  
Sea Level Pressure 30.08 in    
Wind  
Wind Speed 6 mph (WNW)    
Max Wind Speed 17 mph    
Max Gust Speed 24 mph    
Visibility 10 miles    
Events Rain , Thunderstorm    
T = Trace of Precipitation, MM = Missing Value Source: NWS Daily Summary

Daily Weather History Graph

Daily Weather History Graph

Search for Another Location

Airport or City:

Trip Planner

Search our weather history database for the weather conditions in past years. The results will help you decide how hot, cold, wet, or windy it might be!

Date:

Astronomy

Jul. 30, 2013 Rise Set
Actual Time 5:41 AM MDT 8:19 PM MDT
Civil Twilight 5:08 AM MDT 8:52 PM MDT
Nautical Twilight 4:27 AM MDT 9:33 PM MDT
Astronomical Twilight 3:39 AM MDT 10:20 PM MDT
Moon 12:02 AM MDT (7/30) 2:41 PM MDT (7/30)
Length of Visible Light 15h 43m
Length of Day
14h 38m
Last Quarter, 40% of the Moon is Illuminated
Jul 30
Last Quarter
Aug 6
New
Aug 14
First Quarter
Aug 20
Full
Aug 28
Last Quarter

Hourly Weather History & Observations

Time (MDT) Temp. Dew Point Humidity Pressure Visibility Wind Dir Wind Speed Gust Speed Precip Events Conditions
12:45 AM 57.2 °F 53.6 °F 88% 30.23 in 10.0 mi NE 4.6 mph - 0.00 in Rain , Thunderstorm Light Rain
12:53 AM 57.9 °F 53.1 °F 84% 30.08 in 10.0 mi WSW 11.5 mph 18.4 mph 0.00 in Thunderstorm Mostly Cloudy
1:00 AM 59.0 °F 53.6 °F 82% 30.26 in 9.0 mi WSW 4.6 mph 21.9 mph 0.00 in Rain Light Rain
1:53 AM 55.9 °F 54.0 °F 93% 30.08 in 10.0 mi West 4.6 mph - 0.01 in Rain Light Rain
2:53 AM 55.9 °F 54.0 °F 93% 30.05 in 10.0 mi Calm Calm - N/A   Partly Cloudy
3:53 AM 55.0 °F 53.1 °F 93% 30.04 in 10.0 mi North 3.5 mph - N/A   Clear
4:53 AM 54.0 °F 51.1 °F 90% 30.06 in 10.0 mi Calm Calm - N/A   Clear
5:53 AM 54.0 °F 51.1 °F 90% 30.06 in 10.0 mi Calm Calm - N/A   Partly Cloudy
6:53 AM 55.9 °F 52.0 °F 87% 30.07 in 10.0 mi Calm Calm - N/A   Clear
7:53 AM 60.1 °F 54.0 °F 80% 30.08 in 10.0 mi Calm Calm - N/A   Mostly Cloudy
8:53 AM 66.0 °F 55.0 °F 68% 30.06 in 10.0 mi South 8.1 mph - N/A   Clear
9:53 AM 69.1 °F 53.1 °F 57% 30.04 in 10.0 mi SSW 9.2 mph 17.3 mph N/A   Clear
10:53 AM 71.1 °F 51.1 °F 49% 30.04 in 10.0 mi Variable 6.9 mph 16.1 mph N/A   Clear
11:53 AM 75.0 °F 48.9 °F 40% 30.04 in 10.0 mi West 10.4 mph 17.3 mph N/A   Clear
12:53 PM 75.9 °F 51.1 °F 42% 30.03 in 10.0 mi West 10.4 mph - N/A   Clear
1:53 PM 77.0 °F 48.0 °F 36% 30.02 in 10.0 mi NW 11.5 mph 16.1 mph N/A   Clear
2:53 PM 80.1 °F 46.0 °F 30% 30.00 in 10.0 mi West 9.2 mph 17.3 mph N/A   Clear
3:53 PM 78.1 °F 41.0 °F 27% 30.01 in 10.0 mi NW 9.2 mph 18.4 mph N/A   Clear
4:53 PM 77.0 °F 39.0 °F 25% 30.03 in 10.0 mi NW 8.1 mph - N/A   Clear
5:53 PM 68.0 °F 55.9 °F 65% 30.11 in 10.0 mi Variable 4.6 mph - N/A   Overcast
6:53 PM 68.0 °F 45.0 °F 43% 30.09 in 10.0 mi West 9.2 mph - 0.00 in   Scattered Clouds
7:53 PM 66.9 °F 44.1 °F 44% 30.08 in 10.0 mi ESE 3.5 mph - N/A   Clear
8:53 PM 61.0 °F 55.9 °F 83% 30.11 in 10.0 mi ENE 10.4 mph - N/A   Partly Cloudy
9:53 PM 60.1 °F 57.0 °F 90% 30.13 in 10.0 mi NE 5.8 mph - N/A   Overcast
10:53 PM 59.0 °F 57.0 °F 93% 30.14 in 10.0 mi NE 4.6 mph - N/A   Mostly Cloudy
11:53 PM 60.1 °F 55.0 °F 83% 30.14 in 10.0 mi NNW 3.5 mph - N/A   Mostly Cloudy